Weather History for Warsaw, IN

Change the Weather History Date:

Wednesday, December 26, 2012

  Actual Average Record
Temperature  
Mean Temperature 28 °F -  
Max Temperature 30 °F 29 °F 55 °F (1982)
Min Temperature 26 °F 14 °F -12 °F (1983)
Degree Days  
Heating Degree Days 37    
Moisture  
Dew Point 24 °F    
Average Humidity 82    
Maximum Humidity 93    
Minimum Humidity 69    
Precipitation  
Precipitation 0.00 in - - ()
Sea Level Pressure  
Sea Level Pressure 29.95 in    
Wind  
Wind Speed 14 mph (NNE)    
Max Wind Speed 18 mph    
Max Gust Speed 28 mph    
Visibility 7 miles    
Events Snow    
Averages and records for this station are not official NWS values.
T = Trace of Precipitation, MM = Missing Value Source: NWS Daily Summary

Daily Weather History Graph

Daily Weather History Graph

Search for Another Location

Airport:

Trip Planner

Search our weather history database for the weather conditions in past years. The results will help you decide how hot, cold, wet, or windy it might be!

Date:

Astronomy

Dec. 26, 2012 Rise Set
Actual Time 8:07 AM EST 5:20 PM EST
Civil Twilight 7:36 AM EST 5:51 PM EST
Nautical Twilight 7:01 AM EST 6:26 PM EST
Astronomical Twilight 6:28 AM EST 7:00 PM EST
Moon 4:13 PM EST (12/26) 6:30 AM EST (12/26)
Length of Visible Light 10h 15m
Length of Day
9h 12m
Waxing Gibbous, 97% of the Moon is Illuminated
Dec 26
Waxing Gibbous
Dec 28
Full
Jan 4
Last Quarter
Jan 11
New
Jan 18
First Quarter

Hourly Weather History & Observations

Time (EST) Temp. Windchill Dew Point Humidity Pressure Visibility Wind Dir Wind Speed Gust Speed Precip Events Conditions
12:15 AM 28.4 °F 18.5 °F 21.2 °F 74% 30.18 in 10.0 mi NE 11.5 mph - N/A   Scattered Clouds
12:35 AM 28.4 °F 19.7 °F 21.2 °F 74% 30.17 in 10.0 mi NE 9.2 mph - N/A   Mostly Cloudy
12:55 AM 28.4 °F 18.5 °F 21.2 °F 74% 30.15 in 10.0 mi NE 11.5 mph - N/A   Overcast
1:15 AM 28.4 °F 17.5 °F 21.2 °F 74% 30.13 in 10.0 mi ENE 13.8 mph - N/A   Overcast
1:35 AM 30.2 °F 21.9 °F 21.2 °F 69% 30.14 in 10.0 mi NE 9.2 mph 16.1 mph N/A   Overcast
1:55 AM 30.2 °F 19.8 °F 21.2 °F 69% 30.13 in 10.0 mi NE 13.8 mph 18.4 mph N/A   Overcast
2:15 AM 30.2 °F 19.8 °F 21.2 °F 69% 30.12 in 10.0 mi NE 13.8 mph 19.6 mph N/A   Overcast
2:35 AM 30.2 °F 19.8 °F 21.2 °F 69% 30.09 in 10.0 mi NE 13.8 mph 19.6 mph N/A   Overcast
2:55 AM 30.2 °F 18.1 °F 21.2 °F 69% 30.08 in 10.0 mi NE 18.4 mph 23.0 mph N/A   Overcast
3:15 AM 30.2 °F 19.8 °F 23.0 °F 75% 30.06 in 10.0 mi NE 13.8 mph 21.9 mph N/A   Overcast
3:35 AM 30.2 °F 18.5 °F 23.0 °F 75% 30.02 in 10.0 mi NE 17.3 mph 23.0 mph N/A   Overcast
3:55 AM 30.2 °F 20.2 °F 23.0 °F 75% 30.06 in 10.0 mi NE 12.7 mph 17.3 mph N/A   Overcast
4:15 AM 30.2 °F 19.3 °F 23.0 °F 75% 30.05 in 10.0 mi ENE 15.0 mph 21.9 mph N/A   Overcast
4:35 AM 30.2 °F 19.3 °F 23.0 °F 75% 30.03 in 10.0 mi NE 15.0 mph 20.7 mph N/A   Overcast
5:15 AM 30.2 °F 20.8 °F 23.0 °F 75% 30.00 in 10.0 mi NE 11.5 mph 21.9 mph N/A   Overcast
5:35 AM 30.2 °F 20.8 °F 23.0 °F 75% 29.99 in 10.0 mi NE 11.5 mph 21.9 mph N/A   Overcast
5:55 AM 30.2 °F 20.2 °F 24.8 °F 80% 29.98 in 10.0 mi NE 12.7 mph 21.9 mph N/A   Overcast
6:15 AM 30.2 °F 18.9 °F 24.8 °F 80% 29.98 in 10.0 mi NE 16.1 mph 24.2 mph N/A   Overcast
6:55 AM 30.2 °F 19.8 °F 24.8 °F 80% 29.97 in 10.0 mi ENE 13.8 mph 26.5 mph N/A   Overcast
7:15 AM 30.2 °F 18.5 °F 24.8 °F 80% 29.95 in 10.0 mi NE 17.3 mph 21.9 mph N/A   Overcast
7:35 AM 30.2 °F 18.9 °F 24.8 °F 80% 29.95 in 10.0 mi NE 16.1 mph 25.3 mph N/A   Overcast
8:15 AM 30.2 °F 18.5 °F 23.0 °F 75% 29.92 in 10.0 mi NE 17.3 mph 23.0 mph N/A   Overcast
8:35 AM 30.2 °F 19.3 °F 24.8 °F 80% 29.91 in 7.0 mi NE 15.0 mph 25.3 mph N/A Snow Light Snow
8:55 AM 30.2 °F 19.3 °F 26.6 °F 86% 29.90 in 3.0 mi NE 15.0 mph 23.0 mph N/A Snow Light Snow
9:15 AM 30.2 °F 19.3 °F 26.6 °F 86% 29.90 in 2.0 mi NE 15.0 mph - N/A Snow Light Snow
9:35 AM 30.2 °F 20.2 °F 26.6 °F 86% 29.90 in 10.0 mi NE 12.7 mph 18.4 mph N/A   Overcast
9:55 AM 30.2 °F 18.1 °F 24.8 °F 80% 29.90 in 7.0 mi NE 18.4 mph 27.6 mph N/A   Overcast
10:15 AM 30.2 °F 19.3 °F 26.6 °F 86% 29.89 in 4.0 mi NNE 15.0 mph 24.2 mph N/A Snow Light Snow
10:35 AM 30.2 °F 18.9 °F 24.8 °F 80% 29.89 in 10.0 mi NNE 16.1 mph 23.0 mph N/A   Overcast
11:15 AM 28.4 °F 15.8 °F 26.6 °F 93% 29.88 in 1.0 mi NNE 18.4 mph 26.5 mph N/A Snow Light Snow
11:35 AM 28.4 °F 15.8 °F 26.6 °F 93% 29.88 in 2.5 mi NNE 18.4 mph 25.3 mph N/A Snow Light Snow
11:55 AM 28.4 °F 16.6 °F 26.6 °F 93% 29.87 in 1.2 mi NNE 16.1 mph 24.2 mph N/A Snow Light Snow
12:15 PM 28.4 °F 16.2 °F 26.6 °F 93% 29.86 in 1.5 mi NNE 17.3 mph 23.0 mph N/A Snow Light Snow
12:35 PM 28.4 °F 17.5 °F 26.6 °F 93% 29.85 in 1.5 mi NNE 13.8 mph 25.3 mph N/A Snow Light Snow
12:55 PM 28.4 °F 16.6 °F 26.6 °F 93% 29.84 in 1.8 mi NNE 16.1 mph 21.9 mph N/A Snow Light Snow
1:15 PM 28.4 °F 16.2 °F 26.6 °F 93% 29.84 in 1.2 mi NNE 17.3 mph 24.2 mph N/A Snow Light Snow
1:35 PM 28.4 °F 16.2 °F 26.6 °F 93% 29.83 in 1.8 mi NNE 17.3 mph 25.3 mph N/A Snow Light Snow
1:55 PM 28.4 °F 17.5 °F 26.6 °F 93% 29.83 in 1.0 mi NNE 13.8 mph 24.2 mph N/A Snow Light Snow
2:15 PM 28.4 °F 16.2 °F 26.6 °F 93% 29.83 in 1.0 mi NNE 17.3 mph 25.3 mph N/A Snow Light Snow
2:35 PM 28.4 °F 16.6 °F 26.6 °F 93% 29.82 in 1.2 mi North 16.1 mph 24.2 mph N/A Snow Light Snow
2:55 PM 28.4 °F 16.6 °F 26.6 °F 93% 29.83 in 1.2 mi North 16.1 mph 23.0 mph N/A Snow Light Snow
3:15 PM 28.4 °F 16.6 °F 26.6 °F 93% 29.84 in 1.5 mi NNE 16.1 mph 27.6 mph N/A Snow Light Snow
3:35 PM 28.4 °F 16.2 °F 26.6 °F 93% 29.85 in 2.0 mi North 17.3 mph - N/A Snow Light Snow
4:15 PM 28.4 °F 17.0 °F 26.6 °F 93% 29.86 in 1.2 mi North 15.0 mph 26.5 mph N/A Snow Light Snow
4:35 PM 28.4 °F 16.6 °F 26.6 °F 93% 29.87 in 1.2 mi North 16.1 mph 21.9 mph N/A Snow Light Snow
4:55 PM 28.4 °F 18.0 °F 26.6 °F 93% 29.88 in 1.8 mi North 12.7 mph 23.0 mph N/A Snow Light Snow
5:15 PM 28.4 °F 18.5 °F 24.8 °F 86% 29.89 in 4.0 mi North 11.5 mph 21.9 mph N/A Snow Light Snow
5:35 PM 28.4 °F 17.0 °F 24.8 °F 86% 29.90 in 4.0 mi North 15.0 mph 21.9 mph N/A Snow Light Snow
6:15 PM 28.4 °F 18.0 °F 24.8 °F 86% 29.91 in 7.0 mi North 12.7 mph 21.9 mph N/A Snow Light Snow
6:35 PM 28.4 °F 17.0 °F 23.0 °F 80% 29.91 in 7.0 mi North 15.0 mph 23.0 mph N/A Snow Light Snow
6:55 PM 28.4 °F 16.6 °F 23.0 °F 80% 29.91 in 7.0 mi North 16.1 mph 26.5 mph N/A Snow Light Snow
7:15 PM 28.4 °F 17.0 °F 23.0 °F 80% 29.91 in 5.0 mi North 15.0 mph 21.9 mph N/A Snow Light Snow
7:35 PM 28.4 °F 17.5 °F 23.0 °F 80% 29.93 in 10.0 mi North 13.8 mph 20.7 mph N/A Snow Light Snow
7:55 PM 28.4 °F 18.0 °F 23.0 °F 80% 29.93 in 10.0 mi North 12.7 mph 20.7 mph N/A   Overcast
8:15 PM 28.4 °F 19.7 °F 23.0 °F 80% 29.93 in 10.0 mi NNE 9.2 mph 17.3 mph N/A   Overcast
8:55 PM 28.4 °F 18.0 °F 24.8 °F 86% 29.94 in 10.0 mi North 12.7 mph - N/A   Overcast
9:15 PM 28.4 °F 19.1 °F 23.0 °F 80% 29.94 in 7.0 mi North 10.4 mph 17.3 mph N/A Snow Light Snow
9:35 PM 28.4 °F 18.0 °F 23.0 °F 80% 29.94 in 10.0 mi North 12.7 mph 18.4 mph N/A Snow Light Snow
9:55 PM 28.4 °F 19.1 °F 23.0 °F 80% 29.95 in 10.0 mi North 10.4 mph 17.3 mph N/A   Overcast
10:15 PM 28.4 °F 19.1 °F 23.0 °F 80% 29.95 in 10.0 mi North 10.4 mph - N/A   Overcast
10:35 PM 28.4 °F 19.1 °F 23.0 °F 80% 29.95 in 10.0 mi NNW 10.4 mph - N/A   Overcast
10:55 PM 26.6 °F 16.8 °F 23.0 °F 86% 29.96 in 10.0 mi NNW 10.4 mph 17.3 mph N/A   Overcast
11:15 PM 26.6 °F 16.2 °F 23.0 °F 86% 29.97 in 10.0 mi NNW 11.5 mph 18.4 mph N/A   Overcast
11:35 PM 26.6 °F 16.8 °F 21.2 °F 80% 29.97 in 10.0 mi NNW 10.4 mph 16.1 mph N/A   Overcast
11:55 PM 26.6 °F 17.5 °F 21.2 °F 80% 29.98 in 10.0 mi NNW 9.2 mph 17.3 mph N/A   Overcast